| time (UTC) | temp F | wind direction | speed knots | gust knots | rain 1hr in | rain 24hr in | rain mn in | humidity % | barometer mb |
| 20260506014544 | 50 | 346 | 2.6 | 7.8 | 0.00 | 0.00 | 0.00 | 82 | 1009.9 |
| 20260506013039 | 50 | 54 | 1.7 | 7.0 | 0.00 | 0.00 | 0.00 | 82 | 1009.6 |
| 20260506011538 | 50 | 30 | 3.5 | 9.6 | 0.00 | 0.00 | 0.00 | 82 | 1009.6 |
| 20260506010036 | 50 | 13 | 2.6 | 7.8 | 0.00 | 0.00 | 0.00 | 81 | 1009.3 |
| 20260506004532 | 50 | 20 | 1.7 | 8.7 | 0.00 | 0.00 | 0.00 | 81 | 1008.9 |
| 20260506003035 | 51 | 351 | 3.5 | 10.4 | 0.00 | 0.00 | 0.00 | 80 | 1008.3 |
| 20260506001534 | 51 | 349 | 3.5 | 12.2 | 0.00 | 0.00 | 0.00 | 79 | 1008.3 |
| 20260506000026 | 51 | 49 | 3.5 | 7.8 | 0.00 | 0.00 | 0.00 | 78 | 1008.2 |
| 20260505234528 | 52 | 30 | 4.3 | 9.6 | 0.00 | 0.00 | 0.00 | 77 | 1008.2 |
| 20260505233021 | 52 | 360 | 2.6 | 8.7 | 0.00 | 0.00 | 0.00 | 77 | 1007.9 |
| 20260505231519 | 52 | 18 | 2.6 | 7.0 | 0.00 | 0.00 | 0.00 | 76 | 1008.2 |
| 20260505230033 | 53 | 57 | 1.7 | 5.2 | 0.00 | 0.00 | 0.00 | 75 | 1008.2 |
| 20260505224513 | 53 | 360 | 4.3 | 13.0 | 0.00 | 0.00 | 0.00 | 75 | 1007.6 |
| 20260505223010 | 53 | 36 | 3.5 | 7.0 | 0.00 | 0.00 | 0.00 | 75 | 1007.6 |
| 20260505221508 | 53 | 51 | 2.6 | 12.2 | 0.00 | 0.00 | 0.00 | 75 | 1007.5 |
| 20260505220005 | 53 | 45 | 4.3 | 13.0 | 0.00 | 0.00 | 0.00 | 75 | 1007.5 |
| 20260505214505 | 54 | 350 | 2.6 | 8.7 | 0.00 | 0.00 | 0.00 | 74 | 1006.9 |
| 20260505213001 | 54 | 30 | 5.2 | 12.2 | 0.00 | 0.00 | 0.00 | 73 | 1006.7 |
| 20260505211559 | 54 | 29 | 3.5 | 8.7 | 0.00 | 0.00 | 0.00 | 74 | 1006.6 |
| 20260505210059 | 55 | 46 | 4.3 | 11.3 | 0.00 | 0.00 | 0.00 | 74 | 1005.9 |
| 20260505204558 | 54 | 337 | 2.6 | 10.4 | 0.00 | 0.00 | 0.00 | 75 | 1005.9 |
| 20260505203104 | 54 | 325 | 3.5 | 9.6 | 0.00 | 0.00 | 0.00 | 76 | 1006.6 |
| 20260505201554 | 55 | 321 | 2.6 | 7.0 | 0.00 | 0.00 | 0.00 | 76 | 1006.1 |
| 20260505200053 | 54 | 38 | 5.2 | 12.2 | 0.00 | 0.00 | 0.00 | 78 | 1005.9 |
| 20260505194551 | 54 | 20 | 3.5 | 8.7 | 0.00 | 0.00 | 0.00 | 79 | 1006.0 |
| 20260505193049 | 54 | 339 | 3.5 | 10.4 | 0.00 | 0.00 | 0.00 | 79 | 1006.1 |
| 20260505191606 | 55 | 23 | 3.5 | 10.4 | 0.00 | 0.00 | 0.00 | 80 | 1005.8 |
| 20260505190047 | 55 | 3 | 6.1 | 12.2 | 0.00 | 0.00 | 0.00 | 80 | 1005.5 |
| 20260505184541 | 56 | 29 | 4.3 | 11.3 | 0.00 | 0.00 | 0.00 | 80 | 1005.7 |
| 20260505183041 | 56 | 34 | 4.3 | 10.4 | 0.00 | 0.00 | 0.00 | 79 | 1005.5 |
| 20260505181536 | 56 | 32 | 5.2 | 13.0 | 0.00 | 0.00 | 0.00 | 78 | 1005.4 |
| 20260505174551 | 57 | 11 | 2.6 | 7.8 | 0.00 | 0.00 | 0.00 | 80 | 1004.8 |
| 20260505173037 | 57 | 315 | 4.3 | 11.3 | 0.00 | 0.00 | 0.00 | 80 | 1004.5 |
| 20260505171535 | 57 | 359 | 3.5 | 14.8 | 0.00 | 0.00 | 0.00 | 81 | 1004.4 |
| 20260505170032 | 57 | 4 | 4.3 | 11.3 | 0.00 | 0.00 | 0.00 | 82 | 1004.0 |
| 20260505164530 | 57 | 1 | 5.2 | 11.3 | 0.00 | 0.00 | 0.00 | 82 | 1003.7 |
| 20260505163029 | 58 | 343 | 5.2 | 9.6 | 0.00 | 0.00 | 0.00 | 82 | 1003.4 |
| 20260505161524 | 58 | 360 | 3.5 | 13.9 | 0.00 | 0.00 | 0.00 | 83 | 1003.0 |
| 20260505153013 | 61 | 54 | 4.3 | 13.9 | 0.00 | 0.00 | 0.00 | 82 | 1001.6 |
| 20260505151510 | 63 | 344 | 5.2 | 14.8 | 0.00 | 0.00 | 0.00 | 80 | 1001.1 |
| 20260505124530 | 68 | 338 | 0.0 | 0.0 | 0.00 | 0.00 | 0.00 | 82 | 999.0 |
| 20260505123033 | 68 | 338 | 0.0 | 0.0 | 0.00 | 0.00 | 0.00 | 81 | 998.8 |
| 20260505121526 | 69 | 340 | 0.0 | 3.5 | 0.00 | 0.00 | 0.00 | 79 | 998.4 |
| 20260505120025 | 70 | 278 | 1.7 | 9.6 | 0.00 | 0.00 | 0.00 | 78 | 997.7 |
| 20260505114521 | 70 | 221 | 2.6 | 7.0 | 0.00 | 0.00 | 0.00 | 77 | 997.4 |
| 20260505113022 | 70 | 219 | 2.6 | 10.4 | 0.00 | 0.00 | 0.00 | 77 | 997.0 |
| 20260505111521 | 70 | 218 | 2.6 | 10.4 | 0.00 | 0.00 | 0.00 | 77 | 996.6 |
| 20260505101527 | 71 | 198 | 4.3 | 12.2 | 0.00 | 0.00 | 0.00 | 75 | 996.3 |
| 20260505100025 | 72 | 165 | 4.3 | 12.2 | 0.00 | 0.00 | 0.00 | 75 | 996.4 |
| 20260505094507 | 72 | 195 | 6.1 | 11.3 | 0.00 | 0.00 | 0.00 | 75 | 996.4 |
| 20260505093005 | 72 | 186 | 5.2 | 11.3 | 0.00 | 0.00 | 0.00 | 75 | 996.3 |
| 20260505091503 | 72 | 219 | 4.3 | 15.6 | 0.00 | 0.00 | 0.00 | 75 | 996.3 |
| 20260505090001 | 72 | 223 | 6.1 | 12.2 | 0.00 | 0.00 | 0.00 | 75 | 996.5 |
| 20260505084607 | 72 | 241 | 5.2 | 13.9 | 0.00 | 0.00 | 0.00 | 75 | 996.6 |
| 20260505083105 | 72 | 148 | 5.2 | 13.9 | 0.00 | 0.00 | 0.00 | 75 | 996.6 |
| 20260505081619 | 72 | 220 | 5.2 | 13.0 | 0.00 | 0.00 | 0.00 | 75 | 996.9 |
| 20260505074552 | 72 | 233 | 5.2 | 11.3 | 0.00 | 0.00 | 0.00 | 75 | 997.2 |
| 20260505073050 | 72 | 210 | 2.6 | 7.8 | 0.00 | 0.00 | 0.00 | 75 | 997.5 |
| 20260505071553 | 72 | 211 | 6.1 | 13.0 | 0.00 | 0.00 | 0.00 | 75 | 997.6 |
| 20260505070045 | 72 | 243 | 7.8 | 15.6 | 0.00 | 0.00 | 0.00 | 75 | 997.7 |
| 20260505064541 | 72 | 143 | 6.1 | 13.9 | 0.00 | 0.00 | 0.00 | 74 | 997.9 |
| 20260505063046 | 72 | 238 | 6.1 | 13.0 | 0.00 | 0.00 | 0.00 | 74 | 998.0 |
| 20260505061540 | 72 | 231 | 3.5 | 13.0 | 0.00 | 0.00 | 0.00 | 74 | 998.1 |
| 20260505060034 | 73 | 227 | 6.1 | 11.3 | 0.00 | 0.00 | 0.00 | 73 | 998.2 |
| 20260505054534 | 73 | 197 | 7.0 | 13.9 | 0.00 | 0.00 | 0.00 | 73 | 998.4 |
| 20260505053037 | 73 | 230 | 4.3 | 13.0 | 0.00 | 0.00 | 0.00 | 72 | 998.4 |
| 20260505051537 | 73 | 216 | 6.1 | 13.9 | 0.00 | 0.00 | 0.00 | 71 | 998.6 |
| 20260505041523 | 74 | 169 | 6.1 | 13.9 | 0.00 | 0.00 | 0.00 | 70 | 998.9 |
| 20260505040020 | 74 | 158 | 5.2 | 14.8 | 0.00 | 0.00 | 0.00 | 70 | 999.1 |
| 20260505034518 | 75 | 207 | 5.2 | 12.2 | 0.00 | 0.00 | 0.00 | 69 | 999.1 |
| 20260505033018 | 75 | 187 | 6.1 | 13.9 | 0.00 | 0.00 | 0.00 | 68 | 999.2 |
| 20260505031517 | 75 | 153 | 5.2 | 13.0 | 0.00 | 0.00 | 0.00 | 68 | 998.9 |
| 20260505030017 | 75 | 238 | 5.2 | 13.9 | 0.00 | 0.00 | 0.00 | 67 | 998.7 |
| 20260505024515 | 76 | 240 | 6.1 | 12.2 | 0.00 | 0.00 | 0.00 | 67 | 998.6 |
| 20260505023020 | 76 | 257 | 5.2 | 9.6 | 0.00 | 0.00 | 0.00 | 66 | 998.8 |
| 20260505021514 | 76 | 196 | 6.1 | 12.2 | 0.00 | 0.00 | 0.00 | 65 | 998.7 |
| 20260505020013 | 77 | 250 | 3.5 | 9.6 | 0.00 | 0.00 | 0.00 | 64 | 998.6 |